Year,Month,Day,Hour,Minute,Value (Times are PST for temperature in C)
2006,05,15,00,00,9.90
2006,05,15,00,01,9.90
2006,05,15,00,02,9.90
2006,05,15,00,03,9.90
2006,05,15,00,04,9.80
2006,05,15,00,05,9.80
2006,05,15,00,06,9.80
2006,05,15,00,07,9.80
2006,05,15,00,08,9.70
2006,05,15,00,09,9.70
2006,05,15,00,10,9.70
2006,05,15,00,11,9.70
2006,05,15,00,12,9.70
2006,05,15,00,13,9.70
2006,05,15,00,14,9.70
2006,05,15,00,15,9.70
2006,05,15,00,16,9.70
2006,05,15,00,17,9.70
2006,05,15,00,18,9.70
2006,05,15,00,19,9.70
2006,05,15,00,20,9.70
2006,05,15,00,21,9.70
2006,05,15,00,22,9.70
2006,05,15,00,23,9.70
2006,05,15,00,24,9.70
2006,05,15,00,25,9.70
2006,05,15,00,26,9.70
2006,05,15,00,27,9.70
2006,05,15,00,28,9.60
2006,05,15,00,29,9.60
2006,05,15,00,30,9.60
2006,05,15,00,31,9.60
2006,05,15,00,32,9.60
2006,05,15,00,33,9.50
2006,05,15,00,34,9.50
2006,05,15,00,35,9.50
2006,05,15,00,36,9.50
2006,05,15,00,37,9.50
2006,05,15,00,38,9.50
2006,05,15,00,39,9.40
2006,05,15,00,40,9.40
2006,05,15,00,41,9.40
2006,05,15,00,42,9.40
2006,05,15,00,43,9.40
2006,05,15,00,44,9.40
2006,05,15,00,45,9.40
2006,05,15,00,46,9.40
2006,05,15,00,47,9.40
2006,05,15,00,48,9.40
2006,05,15,00,49,9.40
2006,05,15,00,50,9.40
2006,05,15,00,51,9.40
2006,05,15,00,52,9.30
2006,05,15,00,53,9.30
2006,05,15,00,54,9.30
2006,05,15,00,55,9.30
2006,05,15,00,56,9.40
2006,05,15,00,57,9.40
2006,05,15,00,58,9.30
2006,05,15,00,59,9.30
2006,05,15,01,00,9.40
2006,05,15,01,01,9.40
2006,05,15,01,02,9.40
2006,05,15,01,03,9.40
2006,05,15,01,04,9.40
2006,05,15,01,05,9.40
2006,05,15,01,06,9.40
2006,05,15,01,07,9.40
2006,05,15,01,08,9.40
2006,05,15,01,09,9.40
2006,05,15,01,10,9.40
2006,05,15,01,11,9.40
2006,05,15,01,12,9.40
2006,05,15,01,13,9.40
2006,05,15,01,14,9.40
2006,05,15,01,15,9.40
2006,05,15,01,16,9.40
2006,05,15,01,17,9.40
2006,05,15,01,18,9.40
2006,05,15,01,19,9.40
2006,05,15,01,20,9.40
2006,05,15,01,21,9.40
2006,05,15,01,22,9.40
2006,05,15,01,23,9.40
2006,05,15,01,24,9.40
2006,05,15,01,25,9.40
2006,05,15,01,26,9.40
2006,05,15,01,27,9.40
2006,05,15,01,28,9.40
2006,05,15,01,29,9.40
2006,05,15,01,30,9.40
2006,05,15,01,31,9.40
2006,05,15,01,32,9.40
2006,05,15,01,33,9.40
2006,05,15,01,34,9.40
2006,05,15,01,35,9.40
2006,05,15,01,36,9.40
2006,05,15,01,37,9.40
2006,05,15,01,38,9.40
2006,05,15,01,39,9.40
2006,05,15,01,40,9.30
2006,05,15,01,41,9.30
2006,05,15,01,42,9.30
2006,05,15,01,43,9.30
2006,05,15,01,44,9.30
2006,05,15,01,45,9.30
2006,05,15,01,46,9.30
2006,05,15,01,47,9.30
2006,05,15,01,48,9.30
2006,05,15,01,49,9.20
2006,05,15,01,50,9.20
2006,05,15,01,51,9.20
2006,05,15,01,52,9.20
2006,05,15,01,53,9.20
2006,05,15,01,54,9.20
2006,05,15,01,55,9.20
2006,05,15,01,56,9.20
2006,05,15,01,57,9.20
2006,05,15,01,58,9.20
2006,05,15,01,59,9.20
2006,05,15,02,00,9.30
2006,05,15,02,01,9.30
2006,05,15,02,02,9.30
2006,05,15,02,03,9.30
2006,05,15,02,04,9.30
2006,05,15,02,05,9.30
2006,05,15,02,06,9.30
2006,05,15,02,07,9.20
2006,05,15,02,08,9.20
2006,05,15,02,09,9.20
2006,05,15,02,10,9.20
2006,05,15,02,11,9.20
2006,05,15,02,12,9.20
2006,05,15,02,13,9.20
2006,05,15,02,14,9.20
2006,05,15,02,15,9.20
2006,05,15,02,16,9.20
2006,05,15,02,17,9.20
2006,05,15,02,18,9.20
2006,05,15,02,19,9.20
2006,05,15,02,20,9.20
2006,05,15,02,21,9.20
2006,05,15,02,22,9.20
2006,05,15,02,23,9.20
2006,05,15,02,24,9.20
2006,05,15,02,25,9.20
2006,05,15,02,26,9.20
2006,05,15,02,27,9.20
2006,05,15,02,28,9.20
2006,05,15,02,29,9.20
2006,05,15,02,30,9.20
2006,05,15,02,31,9.20
2006,05,15,02,32,9.20
2006,05,15,02,33,9.20
2006,05,15,02,34,9.20
2006,05,15,02,35,9.20
2006,05,15,02,36,9.20
2006,05,15,02,37,9.20
2006,05,15,02,38,9.20
2006,05,15,02,39,9.20
2006,05,15,02,40,9.20
2006,05,15,02,41,9.20
2006,05,15,02,42,9.20
2006,05,15,02,43,9.20
2006,05,15,02,44,9.20
2006,05,15,02,45,9.20
2006,05,15,02,46,9.20
2006,05,15,02,47,9.20
2006,05,15,02,48,9.20
2006,05,15,02,49,9.20
2006,05,15,02,50,9.20
2006,05,15,02,51,9.20
2006,05,15,02,52,9.20
2006,05,15,02,53,9.20
2006,05,15,02,54,9.20
2006,05,15,02,55,9.20
2006,05,15,02,56,9.20
2006,05,15,02,57,9.20
2006,05,15,02,58,9.20
2006,05,15,02,59,9.20
2006,05,15,03,00,9.20
2006,05,15,03,01,9.20
2006,05,15,03,02,9.20
2006,05,15,03,03,9.20
2006,05,15,03,04,9.20
2006,05,15,03,05,9.30
2006,05,15,03,06,9.30
2006,05,15,03,07,9.30
2006,05,15,03,08,9.30
2006,05,15,03,09,9.30
2006,05,15,03,10,9.30
2006,05,15,03,11,9.30
2006,05,15,03,12,9.30
2006,05,15,03,13,9.40
2006,05,15,03,14,9.40
2006,05,15,03,15,9.40
2006,05,15,03,16,9.40
2006,05,15,03,17,9.40
2006,05,15,03,18,9.50
2006,05,15,03,19,9.50
2006,05,15,03,20,9.50
2006,05,15,03,21,9.60
2006,05,15,03,22,9.60
2006,05,15,03,23,9.60
2006,05,15,03,24,9.70
2006,05,15,03,25,9.70
2006,05,15,03,26,9.70
2006,05,15,03,27,9.70
2006,05,15,03,28,9.70
2006,05,15,03,29,9.70
2006,05,15,03,30,9.70
2006,05,15,03,31,9.70
2006,05,15,03,32,9.70
2006,05,15,03,33,9.70
2006,05,15,03,34,9.80
2006,05,15,03,35,9.80
2006,05,15,03,36,9.80
2006,05,15,03,37,9.80
2006,05,15,03,38,9.80
2006,05,15,03,39,9.80
2006,05,15,03,40,9.80
2006,05,15,03,41,9.80
2006,05,15,03,42,9.80
2006,05,15,03,43,9.80
2006,05,15,03,44,9.80
2006,05,15,03,45,9.80
2006,05,15,03,46,9.80
2006,05,15,03,47,9.80
2006,05,15,03,48,9.90
2006,05,15,03,49,9.90
2006,05,15,03,50,9.90
2006,05,15,03,51,9.90
2006,05,15,03,52,9.90
2006,05,15,03,53,9.90
2006,05,15,03,54,9.90
2006,05,15,03,55,9.90
2006,05,15,03,56,9.90
2006,05,15,03,57,10.00
2006,05,15,03,58,10.10
2006,05,15,03,59,10.10
2006,05,15,04,00,10.10
2006,05,15,04,01,10.10
2006,05,15,04,02,10.10
2006,05,15,04,03,10.10
2006,05,15,04,04,10.10
2006,05,15,04,05,10.10
2006,05,15,04,06,10.10
2006,05,15,04,07,10.10
2006,05,15,04,08,10.10
2006,05,15,04,09,10.10
2006,05,15,04,10,10.10
2006,05,15,04,11,10.10
2006,05,15,04,12,10.10
2006,05,15,04,13,10.10
2006,05,15,04,14,10.10
2006,05,15,04,15,10.10
2006,05,15,04,16,10.10
2006,05,15,04,17,10.10
2006,05,15,04,18,10.10
2006,05,15,04,19,10.10
2006,05,15,04,20,10.10
2006,05,15,04,21,10.10
2006,05,15,04,22,10.10
2006,05,15,04,23,10.10
2006,05,15,04,24,10.10
2006,05,15,04,25,10.10
2006,05,15,04,26,10.10
2006,05,15,04,27,10.10
2006,05,15,04,28,10.10
2006,05,15,04,29,10.10
2006,05,15,04,30,10.10
2006,05,15,04,31,10.10
2006,05,15,04,32,10.10
2006,05,15,04,33,10.10
2006,05,15,04,34,10.10
2006,05,15,04,35,10.10
2006,05,15,04,36,10.10
2006,05,15,04,37,10.10
2006,05,15,04,38,10.10
2006,05,15,04,39,10.10
2006,05,15,04,40,10.10
2006,05,15,04,41,10.10
2006,05,15,04,42,10.10
2006,05,15,04,43,10.10
2006,05,15,04,44,10.10
2006,05,15,04,45,10.10
2006,05,15,04,46,10.10
2006,05,15,04,47,10.10
2006,05,15,04,48,10.10
2006,05,15,04,49,10.20
2006,05,15,04,50,10.20
2006,05,15,04,51,10.20
2006,05,15,04,52,10.20
2006,05,15,04,53,10.20
2006,05,15,04,54,10.20
2006,05,15,04,55,10.20
2006,05,15,04,56,10.20
2006,05,15,04,57,10.20
2006,05,15,04,58,10.20
2006,05,15,04,59,10.20
2006,05,15,05,00,10.30
2006,05,15,05,01,10.30
2006,05,15,05,02,10.30
2006,05,15,05,03,10.30
2006,05,15,05,04,10.30
2006,05,15,05,05,10.30
2006,05,15,05,06,10.30
2006,05,15,05,07,10.30
2006,05,15,05,08,10.40
2006,05,15,05,09,10.40
2006,05,15,05,10,10.40
2006,05,15,05,11,10.40
2006,05,15,05,12,10.40
2006,05,15,05,13,10.40
2006,05,15,05,14,10.40
2006,05,15,05,15,10.40
2006,05,15,05,16,10.40
2006,05,15,05,17,10.40
2006,05,15,05,18,10.40
2006,05,15,05,19,10.40
2006,05,15,05,20,10.60
2006,05,15,05,21,10.60
2006,05,15,05,22,10.60
2006,05,15,05,23,10.70
2006,05,15,05,24,10.80
2006,05,15,05,25,10.80
2006,05,15,05,26,10.90
2006,05,15,05,27,11.00
2006,05,15,05,28,11.20
2006,05,15,05,29,11.40
2006,05,15,05,30,11.50
2006,05,15,05,31,11.60
2006,05,15,05,32,11.60
2006,05,15,05,33,11.70
2006,05,15,05,34,11.80
2006,05,15,05,35,11.80
2006,05,15,05,36,11.80
2006,05,15,05,37,11.80
2006,05,15,05,38,11.80
2006,05,15,05,39,11.80
2006,05,15,05,40,11.80
2006,05,15,05,41,11.80
2006,05,15,05,42,11.80
2006,05,15,05,43,11.80
2006,05,15,05,44,11.90
2006,05,15,05,45,11.90
2006,05,15,05,46,12.00
2006,05,15,05,47,12.00
2006,05,15,05,48,12.10
2006,05,15,05,49,12.10
2006,05,15,05,50,12.10
2006,05,15,05,51,12.10
2006,05,15,05,52,12.10
2006,05,15,05,53,12.10
2006,05,15,05,54,12.10
2006,05,15,05,55,12.20
2006,05,15,05,56,12.20
2006,05,15,05,57,12.30
2006,05,15,05,58,12.30
2006,05,15,05,59,12.40
2006,05,15,06,00,12.50
2006,05,15,06,01,12.70
2006,05,15,06,02,12.80
2006,05,15,06,03,12.90
2006,05,15,06,04,13.10
2006,05,15,06,05,13.20
2006,05,15,06,06,13.40
2006,05,15,06,07,13.60
2006,05,15,06,08,13.80
2006,05,15,06,09,14.00
2006,05,15,06,10,14.20
2006,05,15,06,11,14.40
2006,05,15,06,12,14.50
2006,05,15,06,13,14.60
2006,05,15,06,14,14.70
2006,05,15,06,15,14.80
2006,05,15,06,16,14.80
2006,05,15,06,17,14.80
2006,05,15,06,18,14.80
2006,05,15,06,19,14.80
2006,05,15,06,20,14.90
2006,05,15,06,21,14.90
2006,05,15,06,22,14.90
2006,05,15,06,23,15.00
2006,05,15,06,24,15.00
2006,05,15,06,25,15.10
2006,05,15,06,26,15.10
2006,05,15,06,27,15.20
2006,05,15,06,28,15.20
2006,05,15,06,29,15.20
2006,05,15,06,30,15.30
2006,05,15,06,31,15.30
2006,05,15,06,32,15.30
2006,05,15,06,33,15.40
2006,05,15,06,34,15.40
2006,05,15,06,35,15.40
2006,05,15,06,36,15.50
2006,05,15,06,37,15.50
2006,05,15,06,38,15.50
2006,05,15,06,39,15.50
2006,05,15,06,40,15.50
2006,05,15,06,41,15.50
2006,05,15,06,42,15.50
2006,05,15,06,43,15.50
2006,05,15,06,44,15.40
2006,05,15,06,45,15.30
2006,05,15,06,46,15.20
2006,05,15,06,47,15.00
2006,05,15,06,48,14.90
2006,05,15,06,49,14.70
2006,05,15,06,50,14.60
2006,05,15,06,51,14.50
2006,05,15,06,52,14.40
2006,05,15,06,53,14.20
2006,05,15,06,54,14.00
2006,05,15,06,55,13.90
2006,05,15,06,56,13.90
2006,05,15,06,57,13.80
2006,05,15,06,58,13.70
2006,05,15,06,59,13.70
2006,05,15,07,00,13.70
2006,05,15,07,01,13.70
2006,05,15,07,02,13.60
2006,05,15,07,03,13.50
2006,05,15,07,04,13.50
2006,05,15,07,05,13.30
2006,05,15,07,06,13.30
2006,05,15,07,07,13.30
2006,05,15,07,08,13.30
2006,05,15,07,09,13.20
2006,05,15,07,10,13.20
2006,05,15,07,11,13.20
2006,05,15,07,12,13.20
2006,05,15,07,13,13.10
2006,05,15,07,14,13.10
2006,05,15,07,15,13.10
2006,05,15,07,16,13.00
2006,05,15,07,17,13.00
2006,05,15,07,18,13.00
2006,05,15,07,19,13.00
2006,05,15,07,20,12.90
2006,05,15,07,21,12.90
2006,05,15,07,22,12.90
2006,05,15,07,23,12.90
2006,05,15,07,24,12.90
2006,05,15,07,25,12.90
2006,05,15,07,26,13.00
2006,05,15,07,27,13.00
2006,05,15,07,28,13.00
2006,05,15,07,29,13.10
2006,05,15,07,30,13.20
2006,05,15,07,31,13.30
2006,05,15,07,32,13.40
2006,05,15,07,33,13.50
2006,05,15,07,34,13.60
2006,05,15,07,35,13.70
2006,05,15,07,36,13.90
2006,05,15,07,37,14.00
2006,05,15,07,38,14.20
2006,05,15,07,39,14.20
2006,05,15,07,40,14.30
2006,05,15,07,41,14.50
2006,05,15,07,42,14.50
2006,05,15,07,43,14.60
2006,05,15,07,44,14.70
2006,05,15,07,45,14.80
2006,05,15,07,46,14.90
2006,05,15,07,47,15.00
2006,05,15,07,48,15.00
2006,05,15,07,49,15.10
2006,05,15,07,50,15.20
2006,05,15,07,51,15.30
2006,05,15,07,52,15.40
2006,05,15,07,53,15.50
2006,05,15,07,54,15.50
2006,05,15,07,55,15.60
2006,05,15,07,56,15.70
2006,05,15,07,57,15.80
2006,05,15,07,58,15.80
2006,05,15,07,59,15.90
2006,05,15,08,00,16.00
2006,05,15,08,01,16.10
2006,05,15,08,02,16.20
2006,05,15,08,03,16.30
2006,05,15,08,04,16.40
2006,05,15,08,05,16.40
2006,05,15,08,06,16.50
2006,05,15,08,07,16.60
2006,05,15,08,08,16.70
2006,05,15,08,09,16.80
2006,05,15,08,10,16.90
2006,05,15,08,11,17.00
2006,05,15,08,12,17.00
2006,05,15,08,13,17.10
2006,05,15,08,14,17.10
2006,05,15,08,15,17.20
2006,05,15,08,16,17.30
2006,05,15,08,17,17.30
2006,05,15,08,18,17.40
2006,05,15,08,19,17.50
2006,05,15,08,20,17.60
2006,05,15,08,21,17.70
2006,05,15,08,22,17.70
2006,05,15,08,23,17.80
2006,05,15,08,24,17.90
2006,05,15,08,25,17.90
2006,05,15,08,26,17.90
2006,05,15,08,27,18.10
2006,05,15,08,28,18.10
2006,05,15,08,29,18.10
2006,05,15,08,30,18.20
2006,05,15,08,31,18.20
2006,05,15,08,32,18.20
2006,05,15,08,33,18.20
2006,05,15,08,34,18.20
2006,05,15,08,35,18.30
2006,05,15,08,36,18.30
2006,05,15,08,37,18.30
2006,05,15,08,38,18.40
2006,05,15,08,39,18.40
2006,05,15,08,40,18.40
2006,05,15,08,41,18.50
2006,05,15,08,42,18.50
2006,05,15,08,43,18.60
2006,05,15,08,44,18.60
2006,05,15,08,45,18.60
2006,05,15,08,46,18.70
2006,05,15,08,47,18.80
2006,05,15,08,48,18.80
2006,05,15,08,49,18.90
2006,05,15,08,50,18.90
2006,05,15,08,51,19.10
2006,05,15,08,52,19.10
2006,05,15,08,53,19.10
2006,05,15,08,54,19.10
2006,05,15,08,55,19.20
2006,05,15,08,56,19.20
2006,05,15,08,57,19.30
2006,05,15,08,58,19.40
2006,05,15,08,59,19.40
2006,05,15,09,00,19.50
2006,05,15,09,01,19.50
2006,05,15,09,02,19.60
2006,05,15,09,03,19.60
2006,05,15,09,04,19.70
2006,05,15,09,05,19.70
2006,05,15,09,06,19.70
2006,05,15,09,07,19.70
2006,05,15,09,08,19.70
2006,05,15,09,09,19.70
2006,05,15,09,10,19.70
2006,05,15,09,11,19.60
2006,05,15,09,12,19.60
2006,05,15,09,13,19.60
2006,05,15,09,14,19.60
2006,05,15,09,15,19.60
2006,05,15,09,16,19.70
2006,05,15,09,17,19.70
2006,05,15,09,18,19.70
2006,05,15,09,19,19.80
2006,05,15,09,20,19.80
2006,05,15,09,21,19.90
2006,05,15,09,22,19.90
2006,05,15,09,23,19.90
2006,05,15,09,24,19.90
2006,05,15,09,25,20.10
2006,05,15,09,26,20.10
2006,05,15,09,27,20.20
2006,05,15,09,28,20.20
2006,05,15,09,29,20.20
2006,05,15,09,30,20.30
2006,05,15,09,31,20.30
2006,05,15,09,32,20.40
2006,05,15,09,33,20.30
2006,05,15,09,34,20.40
2006,05,15,09,35,20.40
2006,05,15,09,36,20.30
2006,05,15,09,37,20.30
2006,05,15,09,38,20.30
2006,05,15,09,39,20.40
2006,05,15,09,40,20.40
2006,05,15,09,41,20.50
2006,05,15,09,42,20.50
2006,05,15,09,43,20.50
2006,05,15,09,44,20.50
2006,05,15,09,45,20.50
2006,05,15,09,46,20.50
2006,05,15,09,47,20.40
2006,05,15,09,48,20.40
2006,05,15,09,49,20.50
2006,05,15,09,50,20.50
2006,05,15,09,51,20.60
2006,05,15,09,52,20.60
2006,05,15,09,53,20.60
2006,05,15,09,54,20.60
2006,05,15,09,55,20.60
2006,05,15,09,56,20.60
2006,05,15,09,57,20.70
2006,05,15,09,58,20.70
2006,05,15,09,59,20.80
2006,05,15,10,00,20.80
2006,05,15,10,01,21.00
2006,05,15,10,02,21.00
2006,05,15,10,03,21.10
2006,05,15,10,04,21.10
2006,05,15,10,05,21.00
2006,05,15,10,06,21.00
2006,05,15,10,07,20.90
2006,05,15,10,08,20.80
2006,05,15,10,09,20.70
2006,05,15,10,10,20.70
2006,05,15,10,11,20.70
2006,05,15,10,12,20.70
2006,05,15,10,13,20.70
2006,05,15,10,14,20.80
2006,05,15,10,15,20.80
2006,05,15,10,16,20.90
2006,05,15,10,17,21.00
2006,05,15,10,18,21.10
2006,05,15,10,19,21.20
2006,05,15,10,20,21.20
2006,05,15,10,21,21.10
2006,05,15,10,22,21.10
2006,05,15,10,23,21.10
2006,05,15,10,24,21.00
2006,05,15,10,25,21.10
2006,05,15,10,26,21.10
2006,05,15,10,27,21.20
2006,05,15,10,28,21.30
2006,05,15,10,29,21.30
2006,05,15,10,30,21.30
2006,05,15,10,31,21.30
2006,05,15,10,32,21.30
2006,05,15,10,33,21.30
2006,05,15,10,34,21.30
2006,05,15,10,35,21.30
2006,05,15,10,36,21.40
2006,05,15,10,37,21.50
2006,05,15,10,38,21.60
2006,05,15,10,39,21.70
2006,05,15,10,40,21.80
2006,05,15,10,41,21.80
2006,05,15,10,42,21.80
2006,05,15,10,43,21.70
2006,05,15,10,44,21.80
2006,05,15,10,45,21.80
2006,05,15,10,46,21.80
2006,05,15,10,47,21.80
2006,05,15,10,48,21.80
2006,05,15,10,49,21.80
2006,05,15,10,50,21.80
2006,05,15,10,51,21.80
2006,05,15,10,52,21.80
2006,05,15,10,53,21.80
2006,05,15,10,54,21.90
2006,05,15,10,55,21.90
2006,05,15,10,56,21.90
2006,05,15,10,57,22.00
2006,05,15,10,58,22.00
2006,05,15,10,59,22.10
2006,05,15,11,00,22.20
2006,05,15,11,01,22.30
2006,05,15,11,02,22.30
2006,05,15,11,03,22.40
2006,05,15,11,04,22.40
2006,05,15,11,05,22.30
2006,05,15,11,06,22.30
2006,05,15,11,07,22.30
2006,05,15,11,08,22.20
2006,05,15,11,09,22.20
2006,05,15,11,10,22.20
2006,05,15,11,11,22.10
2006,05,15,11,12,22.00
2006,05,15,11,13,22.10
2006,05,15,11,14,22.10
2006,05,15,11,15,22.00
2006,05,15,11,16,22.00
2006,05,15,11,17,22.00
2006,05,15,11,18,22.00
2006,05,15,11,19,22.00
2006,05,15,11,20,22.00
2006,05,15,11,21,22.10
2006,05,15,11,22,22.20
2006,05,15,11,23,22.30
2006,05,15,11,24,22.40
2006,05,15,11,25,22.50
2006,05,15,11,26,22.60
2006,05,15,11,27,22.60
2006,05,15,11,28,22.70
2006,05,15,11,29,22.70
2006,05,15,11,30,22.70
2006,05,15,11,31,22.70
2006,05,15,11,32,22.80
2006,05,15,11,33,22.80
2006,05,15,11,34,22.70
2006,05,15,11,35,22.60
2006,05,15,11,36,22.50
2006,05,15,11,37,22.30
2006,05,15,11,38,22.20
2006,05,15,11,39,22.20
2006,05,15,11,40,22.20
2006,05,15,11,41,22.20
2006,05,15,11,42,22.10
2006,05,15,11,43,22.10
2006,05,15,11,44,22.10
2006,05,15,11,45,22.10
2006,05,15,11,46,22.10
2006,05,15,11,47,22.10
2006,05,15,11,48,22.10
2006,05,15,11,49,22.10
2006,05,15,11,50,22.00
2006,05,15,11,51,22.00
2006,05,15,11,52,21.90
2006,05,15,11,53,21.90
2006,05,15,11,54,21.90
2006,05,15,11,55,21.90
2006,05,15,11,56,21.90
2006,05,15,11,57,21.90
2006,05,15,11,58,21.90
2006,05,15,11,59,22.00
2006,05,15,12,00,22.00
2006,05,15,12,01,22.00
2006,05,15,12,02,22.00
2006,05,15,12,03,22.00
2006,05,15,12,04,22.00
2006,05,15,12,05,22.00
2006,05,15,12,06,22.10
2006,05,15,12,07,22.10
2006,05,15,12,08,22.20
2006,05,15,12,09,22.30
2006,05,15,12,10,22.30
2006,05,15,12,11,22.30
2006,05,15,12,12,22.40
2006,05,15,12,13,22.40
2006,05,15,12,14,22.40
2006,05,15,12,15,22.40
2006,05,15,12,16,22.40
2006,05,15,12,17,22.40
2006,05,15,12,18,22.40
2006,05,15,12,19,22.30
2006,05,15,12,20,22.20
2006,05,15,12,21,22.20
2006,05,15,12,22,22.20
2006,05,15,12,23,22.20
2006,05,15,12,24,22.20
2006,05,15,12,25,22.30
2006,05,15,12,26,22.30
2006,05,15,12,27,22.30
2006,05,15,12,28,22.40
2006,05,15,12,29,22.40
2006,05,15,12,30,22.40
2006,05,15,12,31,22.50
2006,05,15,12,32,22.50
2006,05,15,12,33,22.50
2006,05,15,12,34,22.50
2006,05,15,12,35,22.50
2006,05,15,12,36,22.50
2006,05,15,12,37,22.50
2006,05,15,12,38,22.50
2006,05,15,12,39,22.50
2006,05,15,12,40,22.50
2006,05,15,12,41,22.50
2006,05,15,12,42,22.50
2006,05,15,12,43,22.60
2006,05,15,12,44,22.60
2006,05,15,12,45,22.60
2006,05,15,12,46,22.70
2006,05,15,12,47,22.70
2006,05,15,12,48,22.70
2006,05,15,12,49,22.90
2006,05,15,12,50,22.90
2006,05,15,12,51,22.90
2006,05,15,12,52,22.90
2006,05,15,12,53,23.00
2006,05,15,12,54,23.10
2006,05,15,12,55,23.10
2006,05,15,12,56,23.10
2006,05,15,12,57,23.10
2006,05,15,12,58,23.10
2006,05,15,12,59,23.20
2006,05,15,13,00,23.20
2006,05,15,13,01,23.30
2006,05,15,13,02,23.30
2006,05,15,13,03,23.30
2006,05,15,13,04,23.30
2006,05,15,13,05,23.40
2006,05,15,13,06,23.40
2006,05,15,13,07,23.40
2006,05,15,13,08,23.30
2006,05,15,13,09,23.30
2006,05,15,13,10,23.30
2006,05,15,13,11,23.30
2006,05,15,13,12,23.30
2006,05,15,13,13,23.30
2006,05,15,13,14,23.30
2006,05,15,13,15,23.30
2006,05,15,13,16,23.30
2006,05,15,13,17,23.30
2006,05,15,13,18,23.30
2006,05,15,13,19,23.40
2006,05,15,13,20,23.40
2006,05,15,13,21,23.40
2006,05,15,13,22,23.60
2006,05,15,13,23,23.60
2006,05,15,13,24,23.70
2006,05,15,13,25,23.70
2006,05,15,13,26,23.70
2006,05,15,13,27,23.70
2006,05,15,13,28,23.70
2006,05,15,13,29,23.70
2006,05,15,13,30,23.70
2006,05,15,13,31,23.80
2006,05,15,13,32,23.80
2006,05,15,13,33,23.70
2006,05,15,13,34,23.70
2006,05,15,13,35,23.70
2006,05,15,13,36,23.70
2006,05,15,13,37,23.80
2006,05,15,13,38,23.80
2006,05,15,13,39,23.80
2006,05,15,13,40,23.80
2006,05,15,13,41,23.80
2006,05,15,13,42,23.90
2006,05,15,13,43,23.90
2006,05,15,13,44,23.90
2006,05,15,13,45,23.90
2006,05,15,13,46,23.90
2006,05,15,13,47,23.90
2006,05,15,13,48,23.80
2006,05,15,13,49,23.80
2006,05,15,13,50,23.80
2006,05,15,13,51,23.80
2006,05,15,13,52,23.90
2006,05,15,13,53,23.90
2006,05,15,13,54,23.90
2006,05,15,13,55,23.90
2006,05,15,13,56,23.90
2006,05,15,13,57,23.90
2006,05,15,13,58,23.90
2006,05,15,13,59,23.90
2006,05,15,14,00,23.90
2006,05,15,14,01,23.90
2006,05,15,14,02,24.00
2006,05,15,14,03,24.10
2006,05,15,14,04,24.10
2006,05,15,14,05,24.10
2006,05,15,14,06,24.20
2006,05,15,14,07,24.30
2006,05,15,14,08,24.30
2006,05,15,14,09,24.30
2006,05,15,14,10,24.30
2006,05,15,14,11,24.40
2006,05,15,14,12,24.40
2006,05,15,14,13,24.40
2006,05,15,14,14,24.50
2006,05,15,14,15,24.50
2006,05,15,14,16,24.60
2006,05,15,14,17,24.60
2006,05,15,14,18,24.70
2006,05,15,14,19,24.70
2006,05,15,14,20,24.70
2006,05,15,14,21,24.70
2006,05,15,14,22,24.70
2006,05,15,14,23,24.70
2006,05,15,14,24,24.70
2006,05,15,14,25,24.80
2006,05,15,14,26,24.80
2006,05,15,14,27,24.90
2006,05,15,14,28,24.90
2006,05,15,14,29,25.00
2006,05,15,14,30,25.10
2006,05,15,14,31,25.10
2006,05,15,14,32,25.10
2006,05,15,14,33,25.20
2006,05,15,14,34,25.20
2006,05,15,14,35,25.30
2006,05,15,14,36,25.30
2006,05,15,14,37,25.30
2006,05,15,14,38,25.30
2006,05,15,14,39,25.30
2006,05,15,14,40,25.30
2006,05,15,14,41,25.20
2006,05,15,14,42,25.20
2006,05,15,14,43,25.20
2006,05,15,14,44,25.10
2006,05,15,14,45,25.10
2006,05,15,14,46,25.00
2006,05,15,14,47,25.00
2006,05,15,14,48,25.00
2006,05,15,14,49,25.00
2006,05,15,14,50,25.00
2006,05,15,14,51,25.00
2006,05,15,14,52,25.00
2006,05,15,14,53,25.00
2006,05,15,14,54,25.00
2006,05,15,14,55,25.00
2006,05,15,14,56,25.00
2006,05,15,14,57,25.00
2006,05,15,14,58,25.00
2006,05,15,14,59,25.00
2006,05,15,15,00,25.10
2006,05,15,15,01,25.10
2006,05,15,15,02,25.20
2006,05,15,15,03,25.30
2006,05,15,15,04,25.40
2006,05,15,15,05,25.40
2006,05,15,15,06,25.50
2006,05,15,15,07,25.40
2006,05,15,15,08,25.40
2006,05,15,15,09,25.40
2006,05,15,15,10,25.40
2006,05,15,15,11,25.40
2006,05,15,15,12,25.40
2006,05,15,15,13,25.30
2006,05,15,15,14,25.30
2006,05,15,15,15,25.30
2006,05,15,15,16,25.30
2006,05,15,15,17,25.30
2006,05,15,15,18,25.30
2006,05,15,15,19,25.30
2006,05,15,15,20,25.30
2006,05,15,15,21,25.30
2006,05,15,15,22,25.40
2006,05,15,15,23,25.40
2006,05,15,15,24,25.50
2006,05,15,15,25,25.60
2006,05,15,15,26,25.60
2006,05,15,15,27,25.70
2006,05,15,15,28,25.80
2006,05,15,15,29,25.80
2006,05,15,15,30,25.90
2006,05,15,15,31,25.90
2006,05,15,15,32,26.00
2006,05,15,15,33,26.10
2006,05,15,15,34,26.20
2006,05,15,15,35,26.20
2006,05,15,15,36,26.20
2006,05,15,15,37,26.20
2006,05,15,15,38,26.30
2006,05,15,15,39,26.30
2006,05,15,15,40,26.30
2006,05,15,15,41,26.30
2006,05,15,15,42,26.30
2006,05,15,15,43,26.20
2006,05,15,15,44,26.20
2006,05,15,15,45,26.20
2006,05,15,15,46,26.20
2006,05,15,15,47,26.20
2006,05,15,15,48,26.30
2006,05,15,15,49,26.30
2006,05,15,15,50,26.30
2006,05,15,15,51,26.30
2006,05,15,15,52,26.30
2006,05,15,15,53,26.30
2006,05,15,15,54,26.20
2006,05,15,15,55,26.20
2006,05,15,15,56,26.30
2006,05,15,15,57,26.30
2006,05,15,15,58,26.40
2006,05,15,15,59,26.40
2006,05,15,16,00,26.40
2006,05,15,16,01,26.50
2006,05,15,16,02,26.60
2006,05,15,16,03,26.60
2006,05,15,16,04,26.60
2006,05,15,16,05,26.60
2006,05,15,16,06,26.70
2006,05,15,16,07,26.60
2006,05,15,16,08,26.60
2006,05,15,16,09,26.60
2006,05,15,16,10,26.60
2006,05,15,16,11,26.60
2006,05,15,16,12,26.60
2006,05,15,16,13,26.60
2006,05,15,16,14,26.60
2006,05,15,16,15,26.70
2006,05,15,16,16,26.70
2006,05,15,16,17,26.80
2006,05,15,16,18,26.80
2006,05,15,16,19,26.80
2006,05,15,16,20,26.80
2006,05,15,16,21,26.80
2006,05,15,16,22,26.80
2006,05,15,16,23,26.70
2006,05,15,16,24,26.70
2006,05,15,16,25,26.70
2006,05,15,16,26,26.80
2006,05,15,16,27,26.80
2006,05,15,16,28,26.80
2006,05,15,16,29,26.80
2006,05,15,16,30,26.80
2006,05,15,16,31,26.70
2006,05,15,16,32,26.70
2006,05,15,16,33,26.70
2006,05,15,16,34,26.80
2006,05,15,16,35,26.80
2006,05,15,16,36,26.80
2006,05,15,16,37,26.80
2006,05,15,16,38,26.80
2006,05,15,16,39,26.80
2006,05,15,16,40,26.80
2006,05,15,16,41,26.70
2006,05,15,16,42,26.70
2006,05,15,16,43,26.60
2006,05,15,16,44,26.60
2006,05,15,16,45,26.60
2006,05,15,16,46,26.50
2006,05,15,16,47,26.40
2006,05,15,16,48,26.30
2006,05,15,16,49,26.30
2006,05,15,16,50,26.30
2006,05,15,16,51,26.30
2006,05,15,16,52,26.20
2006,05,15,16,53,26.20
2006,05,15,16,54,26.20
2006,05,15,16,55,26.20
2006,05,15,16,56,26.20
2006,05,15,16,57,26.20
2006,05,15,16,58,26.20
2006,05,15,16,59,26.20
2006,05,15,17,00,26.10
2006,05,15,17,01,26.10
2006,05,15,17,02,26.10
2006,05,15,17,03,26.10
2006,05,15,17,04,26.10
2006,05,15,17,05,26.10
2006,05,15,17,06,26.10
2006,05,15,17,07,26.10
2006,05,15,17,08,26.10
2006,05,15,17,09,26.10
2006,05,15,17,10,26.10
2006,05,15,17,11,26.00
2006,05,15,17,12,26.00
2006,05,15,17,13,26.00
2006,05,15,17,14,26.00
2006,05,15,17,15,26.00
2006,05,15,17,16,26.00
2006,05,15,17,17,26.10
2006,05,15,17,18,26.10
2006,05,15,17,19,26.10
2006,05,15,17,20,26.10
2006,05,15,17,21,26.00
2006,05,15,17,22,26.00
2006,05,15,17,23,26.00
2006,05,15,17,24,26.00
2006,05,15,17,25,26.00
2006,05,15,17,26,26.00
2006,05,15,17,27,26.00
2006,05,15,17,28,26.00
2006,05,15,17,29,26.00